Location: Iroquois Falls
(48.7680°N, 80.6732°W)
Time: 01:54:57
(UTC-05:00)

ACS3 Solar Sail - Visible Passes

Search period start: 16 November 2025 00:00
Search period end: 26 November 2025 00:00
Orbit: 907 x 993 km, 97.3° (Epoch: 15 November)

Date Brightness Start Highest point End Pass type
(mag) Time Alt. Az. Time Alt. Az. Time Alt. Az.
16 Nov 4.1 02:52:16 10° NNE 02:53:43 17° NE 02:53:43 17° NE visible
16 Nov 3.0 04:35:01 10° N 04:37:49 27° N 04:37:49 27° N visible
16 Nov 3.6 06:21:24 10° NW 06:21:55 10° NW 06:21:55 10° NW visible
17 Nov 3.9 03:09:21 10° NNE 03:11:04 19° NNE 03:11:04 19° NNE visible
17 Nov 3.1 04:52:31 10° N 04:55:09 24° NNW 04:55:09 24° NNW visible
18 Nov 3.7 03:26:29 10° NNE 03:28:21 21° NNE 03:28:21 21° NNE visible
18 Nov 3.2 05:10:01 10° N 05:12:26 21° NNW 05:12:26 21° NNW visible
19 Nov 3.6 03:43:38 10° NNE 03:45:34 22° NNE 03:45:34 22° NNE visible
19 Nov 3.3 05:27:33 10° N 05:29:39 17° NNW 05:29:39 17° NNW visible
20 Nov 3.5 04:00:46 10° N 04:02:43 22° N 04:02:43 22° N visible
20 Nov 3.5 05:45:11 10° NNW 05:46:48 14° NNW 05:46:48 14° NNW visible
21 Nov 4.5 02:35:30 10° NNE 02:35:44 11° NE 02:35:44 11° NE visible
21 Nov 3.5 04:17:54 10° N 04:19:49 21° N 04:19:49 21° N visible
21 Nov 3.6 06:03:00 10° NNW 06:03:53 12° NNW 06:03:53 12° NNW visible
22 Nov 4.3 02:52:11 10° NNE 02:52:46 13° NNE 02:52:46 13° NNE visible
22 Nov 3.5 04:35:01 10° N 04:36:50 20° N 04:36:50 20° N visible
23 Nov 4.2 03:08:54 10° NNE 03:09:44 14° NNE 03:09:44 14° NNE visible
23 Nov 3.5 04:52:07 10° N 04:53:47 18° NNW 04:53:47 18° NNW visible
24 Nov 4.1 03:25:39 10° NNE 03:26:37 15° NNE 03:26:37 15° NNE visible
24 Nov 3.5 05:09:14 10° N 05:10:41 16° NNW 05:10:41 16° NNW visible
25 Nov 4.0 03:42:23 10° NNE 03:43:27 16° NNE 03:43:27 16° NNE visible
25 Nov 3.6 05:26:22 10° NNW 05:27:31 14° NNW 05:27:31 14° NNW visible
